Regional Weather Roundup
Issued by NWS

Home | Current Version | Previous Version | Graphics & Text | Print | Product List | Glossary On
Versions: 1 2 3 4 5 6 7 8 9 10 11 12 13 14 15 16 17 18 19 20 21 22 23 24 25 26 27 28 29 30 31 32 33 34 35 36 37 38 39 40 41 42 43 44 45 46 47 48 49 50
000
ASUS43 KIND 252259
RWRIN

WEATHER ROUNDUP FOR INDIANA
NATIONAL WEATHER SERVICE INDIANAPOLIS IN
700 PM EDT MON MAY 25 2015

NOTE: "FAIR" INDICATES FEW OR NO CLOUDS BELOW 12,000 FEET WITH NO
SIGNIFICANT WEATHER AND/OR OBSTRUCTIONS TO VISIBILITY.

* - STATION DOES NOT REPORT WEATHER SUCH AS PRECIPITATION OR FOG.

+ - STATION NOT QUALITY CONTROLLED BY THE NATIONAL WEATHER SERVICE.
    USE DATA WITH CAUTION...ESPECIALLY DEWPOINT AND RELATIVE
    HUMIDITY OBSERVATIONS.

INZ001>003-010>013-019-020-260000-
NORTHWEST INDIANA

CITY           SKY/WX    TMP DP  RH WIND       PRES   REMARKS
GARY /AIRPORT/ MOSUNNY   81  57  44 SW17      29.94F

$$

LMZ046-743>745-260000-
SOUTHERN LAKE MICHIGAN

STATION/POSITION TIME  TEMP    WIND        PRES    WAVE
                       AIR SEA DIR/SP/G            HT
                 (UTC) (F)     (DEG/KT/KT) (MB)    (FT)
BURNS HARBOR     2200   77     230/ 10/ 18 1014.2S
MICHIGAN CITY    2200   70     220/ 15/ 18   N/A
5NW MICH CITY    2200   61 52  230/  6/  8   N/A     2

$$

INZ004-005-014>016-021>024-260000-
NORTH CENTRAL INDIANA

CITY           SKY/WX    TMP DP  RH WIND       PRES   REMARKS
ELKHART        SUNNY     79  57  47 SW10G22   29.96S
GOSHEN         CLOUDY    79  59  50 SW18G26   29.96R
SOUTH BEND     PTSUNNY   80  57  45 SW16G24   29.96R

$$

INZ006>009-017-018-025>027-260000-
NORTHEAST INDIANA

CITY           SKY/WX    TMP DP  RH WIND       PRES   REMARKS
ANGOLA *+      MOSUNNY   79  72  78 SW13      29.97R
FORT WAYNE     PTSUNNY   78  61  55 SW21G32   30.00S

$$

INZ028-029-035-036-043>045-051>053-260000-
WEST CENTRAL INDIANA

CITY           SKY/WX    TMP DP  RH WIND       PRES   REMARKS
GREENCASTLE +  CLOUDY    73  61  64 S8G16     30.04S
LAFAYETTE      CLOUDY    77  62  59 SW9G21    29.99R
TERRE HAUTE    CLOUDY    77  65  66 S14       30.02F

$$

INZ030>032-037>040-046>048-054>057-064-065-260000-
CENTRAL INDIANA

CITY           SKY/WX    TMP DP  RH WIND       PRES   REMARKS
COLUMBUS       PTSUNNY   73  61  64 SW16      30.08R
GREENWOOD *+   CLOUDY    77  61  57 SW14G20   30.06F
INDIANAPOLIS   CLOUDY    75  63  66 S15G26    30.02F
-EAGLE CREEK   CLOUDY    75  65  70 S10G21    30.03F
KOKOMO *+      CLOUDY    79  61  53 SW22G28   30.01S
MT COMFORT *+  CLOUDY    77  54  44 S14       30.04F
SHELBYVILLE    CLOUDY    79  64  60 S18G24    30.05F

$$

INZ033-034-041-042-049-050-058-059-260000-
EAST CENTRAL INDIANA

CITY           SKY/WX    TMP DP  RH WIND       PRES   REMARKS
MUNCIE         PTSUNNY   78  63  59 SW14G21   30.04S

$$

INZ060-061-067>069-081>083-085>088-260000-
SOUTHWEST INDIANA

CITY           SKY/WX    TMP DP  RH WIND       PRES   REMARKS
EVANSVILLE     CLOUDY    74  66  76 S12       30.05F
HUNTINGBURG *+ CLOUDY    73  64  73 S9        30.07F

$$

INZ062-063-066-070>080-084-089>092-260000-
SOUTH CENTRAL AND SOUTHEAST INDIANA

CITY           SKY/WX    TMP DP  RH WIND       PRES   REMARKS
BLOOMINGTON    CLOUDY    74  66  76 S10       30.06F
MADISON *+     CLOUDY    72  63  73 S9        30.11F
SEYMOUR +      CLOUDY    77  64  65 S10       30.08S

$$




USA.gov is the U.S. government's official web portal to all federal, state and local government web resources and services.